Weather History for KFSD - October, 2011

Change the Weather History Date:

Saturday, October 15, 2011

  Actual Average Record
Temperature  
Mean Temperature 50 °F 48 °F  
Max Temperature 65 °F 60 °F 92 °F (1958)
Min Temperature 34 °F 36 °F 23 °F (1952)
Degree Days  
Heating Degree Days 15 17  
Month to date heating degree days 55 210  
Since 1 July heating degree days 254 414  
Cooling Degree Days 0 0  
Month to date cooling degree days 37 0  
Year to date cooling degree days 807 685  
Moisture  
Dew Point 35 °F    
Average Humidity 60    
Maximum Humidity 89    
Minimum Humidity 30    
Precipitation  
Precipitation T in 0.07 in 1.49 in (2007)
Month to date precipitation 0.63 1.24  
Year to date precipitation 23.62 23.40  
Snow  
Snow 0.00 in 0.10 in T in (2001)
Month to date snowfall 0.0 0.3  
Since 1 July snowfall 0.0 0.3  
Since 1 September snowfall 0.0 0.3  
Snow Depth 0.00 in    
Sea Level Pressure  
Sea Level Pressure 29.93 in    
Wind  
Wind Speed 5 mph (WSW)    
Max Wind Speed 20 mph    
Max Gust Speed 23 mph    
Visibility 10 miles    
Events Rain    
T = Trace of Precipitation, MM = Missing Value Source: NWS Daily Summary

Daily Weather History Graph

Daily Weather History Graph

Search for Another Location

Airport or City:

Trip Planner

Search our weather history database for the weather conditions in past years. The results will help you decide how hot, cold, wet, or windy it might be!

Date:

Astronomy

Oct. 15, 2011 Rise Set
Actual Time 7:40 AM CDT 6:44 PM CDT
Civil Twilight 7:11 AM CDT 7:12 PM CDT
Nautical Twilight 6:38 AM CDT 7:46 PM CDT
Astronomical Twilight 6:05 AM CDT 8:19 PM CDT
Moon 8:34 PM CDT (10/15) 11:13 AM CDT (10/15)
Length of Visible Light 12h 00m
Length of Day
11h 03m
Waning Gibbous, 89% of the Moon is Illuminated
Oct 15
Waning Gibbous
Oct 19
Last Quarter
Oct 26
New
Nov 2
First Quarter
Nov 10
Full

Hourly Weather History & Observations

Time (CDT) Temp. Windchill Dew Point Humidity Pressure Visibility Wind Dir Wind Speed Gust Speed Precip Events Conditions
12:56 AM 39.0 °F 35.7 °F 35.1 °F 86% 29.99 in 10.0 mi West 4.6 mph - N/A   Clear
1:56 AM 39.9 °F 35.8 °F 35.1 °F 83% 29.99 in 10.0 mi West 5.8 mph - N/A   Clear
2:56 AM 39.9 °F 37.8 °F 35.1 °F 83% 30.00 in 10.0 mi West 3.5 mph - N/A   Clear
3:56 AM 39.0 °F 35.7 °F 34.0 °F 82% 30.01 in 10.0 mi WNW 4.6 mph - N/A   Clear
4:56 AM 37.0 °F 33.3 °F 33.1 °F 86% 30.01 in 10.0 mi West 4.6 mph - N/A   Clear
5:56 AM 36.0 °F - 32.0 °F 86% 30.03 in 10.0 mi Calm Calm - N/A   Partly Cloudy
6:56 AM 37.4 °F - 32.0 °F 81% 29.99 in 10.0 mi Calm Calm - N/A   Scattered Clouds
7:56 AM 39.2 °F - 33.8 °F 81% 29.99 in 10.0 mi Calm Calm - N/A   Mostly Cloudy
8:56 AM 43.0 °F - 36.0 °F 76% 30.02 in 10.0 mi Calm Calm - N/A   Scattered Clouds
9:56 AM 48.0 °F - 37.9 °F 68% 30.01 in 10.0 mi Calm Calm - N/A   Partly Cloudy
10:56 AM 52.0 °F - 39.0 °F 61% 30.01 in 10.0 mi South 3.5 mph - N/A   Clear
11:56 AM 57.0 °F - 37.0 °F 47% 29.99 in 10.0 mi Calm Calm - N/A   Clear
12:56 PM 60.1 °F - 34.0 °F 38% 29.93 in 10.0 mi South 6.9 mph - N/A   Clear
1:56 PM 61.0 °F - 30.9 °F 32% 29.89 in 10.0 mi SSW 8.1 mph - N/A   Clear
2:56 PM 62.1 °F - 30.0 °F 30% 29.87 in 10.0 mi SW 5.8 mph - N/A   Clear
3:56 PM 64.0 °F - 32.0 °F 30% 29.84 in 10.0 mi SW 4.6 mph - N/A   Partly Cloudy
4:56 PM 64.0 °F - 33.1 °F 31% 29.81 in 10.0 mi South 4.6 mph - N/A   Scattered Clouds
5:56 PM 59.0 °F - 39.9 °F 49% 29.83 in 10.0 mi ENE 4.6 mph - N/A   Mostly Cloudy
6:56 PM 59.0 °F - 34.0 °F 39% 29.85 in 10.0 mi NNE 6.9 mph - N/A   Mostly Cloudy
7:56 PM 54.0 °F - 35.1 °F 49% 29.82 in 10.0 mi East 5.8 mph - N/A   Mostly Cloudy
8:56 PM 52.0 °F - 35.1 °F 53% 29.82 in 10.0 mi ENE 6.9 mph - N/A   Scattered Clouds
9:56 PM 54.0 °F - 35.1 °F 49% 29.86 in 10.0 mi NNE 9.2 mph - N/A   Mostly Cloudy
10:56 PM 50.0 °F - 37.4 °F 62% 29.84 in 10.0 mi NE 8.1 mph 19.6 mph N/A   Overcast
11:56 PM 48.0 °F - 39.9 °F 74% 29.88 in 10.0 mi NE 6.9 mph - 0.00 in Rain Light Rain